This demonstration page uses our WeatherBlox Daily Observations layout. Learn more.

Left ArrowRight Arrow

34.74481, -87.66753

Hourly Observations for June 8, 2020

Temp ( °F °C ) Dew Point ( °F °C ) Humidity (%) Winds ( mph kmh ) Pressure ( in mb ) Visibility ( mi km ) Precip ( " mm )
12:53 am 00:53 Clear 79 26.1 70 21.1 74 74 E 7 11 29.81 1009 10 16 0.00 0.00
1:53 am 01:53 Clear 78 25.6 71 21.7 79 79 E 7 11 29.80 1009 10 16 0.00 0.00
2:53 am 02:53 Clear 79 26.1 70 21.1 74 74 E 10 17 29.79 1009 10 16 0.00 0.00
3:53 am 03:53 Clear 78 25.6 70 21.1 76 76 E 8 13 29.78 1008 10 16 0.00 0.00
4:53 am 04:53 Clear 78 25.6 70 21.1 76 76 E 9 15 29.77 1008 10 16 0.00 0.00
5:53 am 05:53 Sunny 78 25.6 70 21.1 76 76 E 8 13 29.77 1008 10 16 0.00 0.00
6:53 am 06:53 Sunny 78 25.6 70 21.1 76 76 E 12 19 29.77 1008 10 16 0.00 0.00
7:53 am 07:53 Mostly Cloudy 80 26.7 70 21.1 71 71 ESE 14 22 29.78 1008 10 16 0.00 0.00
8:07 am 08:07 Cloudy 80 26.7 70 21.1 71 71 ESE 13 20 29.78 1008 10 16 0.00 0.00
8:53 am 08:53 Cloudy 80 26.7 70 21.1 71 71 ESE 13 20 29.79 1009 10 16 0.00 0.00
9:13 am 09:13 Cloudy 81 27.2 70 21.1 69 69 SE 13 20 29.79 1009 10 16 0.00 0.00
9:53 am 09:53 Mostly Cloudy 83 28.3 70 21.1 65 65 ESE 15 24 29.80 1009 10 16 0.00 0.00
10:53 am 10:53 Cloudy 83 28.3 70 21.1 65 65 ESE 18 30 29.80 1009 10 16 0.00 0.00
11:27 am 11:27 Cloudy 81 27.2 71 21.7 72 72 ESE 14 22 29.80 1009 10 16 0.00 0.00
11:53 am 11:53 Cloudy 83 28.3 72 22.2 70 70 ESE 12 19 29.80 1009 10 16 0.00 0.00
12:46 pm 12:46 Cloudy with Light Rain 78 25.6 74 23.3 87 87 ESE 15 24 29.80 1009 10 16 0.02 0.51
12:53 pm 12:53 Cloudy with Light Rain 78 25.6 74 23.3 87 87 ESE 14 22 29.80 1009 10 16 0.02 0.51
1:09 pm 13:09 Cloudy with Light Rain 79 26.1 74 23.3 85 85 ESE 13 20 29.80 1009 10 16 0.01 0.25
1:53 pm 13:53 Cloudy with Light Rain 78 25.6 74 23.3 87 87 ESE 14 22 29.78 1009 10 16 0.06 1.52
2:20 pm 14:20 Cloudy 79 26.1 74 23.3 85 85 E 13 20 29.78 1008 10 16 0.00 0.00
2:48 pm 14:48 Cloudy with Light Rain 79 26 73 23 84 84 ESE 14 22 29.76 1008 10 16 0.00 0.00
2:53 pm 14:53 Cloudy with Light Rain 79 26.1 74 23.3 85 85 ESE 9 15 29.76 1008 10 16 0.01 0.25
3:53 pm 15:53 Cloudy with Heavy Rain 78 25.6 75 23.9 90 90 E 10 17 29.74 1007 5 8 0.21 5.33
4:53 pm 16:53 Cloudy with Heavy Rain 78 25.6 75 23.9 90 90 E 12 19 29.72 1007 9 14 0.47 11.94
5:15 pm 17:15 Cloudy with Light Rain 79 26.1 75 23.9 88 88 ESE 13 20 29.74 1007 10 16 0.07 1.78
5:53 pm 17:53 Cloudy with Light Rain 78 25.6 75 23.9 90 90 ESE 13 20 29.72 1007 10 16 0.12 3.05
6:13 pm 18:13 Cloudy with Heavy Rain 78 25.6 75 23.9 90 90 ESE 14 22 29.73 1007 2 3 0.17 4.32
6:26 pm 18:26 Cloudy with Light Rain 78 25.6 75 23.9 90 90 SE 15 24 29.73 1007 5 8 0.18 4.57
6:43 pm 18:43 Mostly Cloudy 79 26.1 74 23.3 85 85 ESE 10 17 29.73 1007 10 16 0.18 4.57
6:53 pm 18:53 Mostly Cloudy 78 25.6 74 23.3 87 87 ESE 13 20 29.73 1007 10 16 0.18 4.57
7:12 pm 19:12 Cloudy 78 25.6 74 23.3 87 87 ESE 10 17 29.74 1007 10 16 0.00 0.00
7:24 pm 19:24 Cloudy 78 25.6 74 23.3 87 87 ESE 10 17 29.74 1007 10 16 0.00 0.00
7:53 pm 19:53 Cloudy 78 25.6 74 23.3 87 87 ESE 10 17 29.74 1007 10 16 0.00 0.00
8:01 pm 20:01 Cloudy 79 26.1 74 23.3 85 85 ESE 12 19 29.74 1007 10 16 0.00 0.00
8:53 pm 20:53 Cloudy 78 25.6 74 23.3 87 87 SE 9 15 29.75 1008 10 16 0.00 0.00
9:53 pm 21:53 Cloudy 78 25.6 74 23.3 87 87 SE 13 20 29.76 1008 10 16 0.00 0.00
10:10 pm 22:10 Cloudy 79 26.1 73 22.8 82 82 SSE 16 26 29.76 1008 10 16 0.00 0.00
10:17 pm 22:17 Cloudy 79 26.1 73 22.8 82 82 SSE 16 26 29.77 1008 10 16 0.00 0.00
10:53 pm 22:53 Cloudy 79 26.1 73 22.8 82 82 SSE 16 26 29.77 1008 10 16 0.00 0.00
11:53 pm 23:53 Cloudy 79 26.1 73 22.8 82 82 SSE 18 30 29.77 1008 10 16 0.00 0.00

Powered by AerisWeather